Location: Barrialito
(10.1025°N, 66.8154°W)
Time: 14:37:39
(UTC+00:00)

NOSS 3-3 (A) - Pass Details

Date: 10 September 2024
Orbit: 733 x 1477 km, 63.4° (Epoch: 04 October)

Event Time Altitude Azimuth Distance (km) Brightness Sun altitude
Rises 23:10:25 0° 184° (S) 3,196 6.7 -10.6°
Reaches altitude 10° 23:13:02 10° 174° (S) 2,239 5.8 -11.2°
Maximum altitude 23:17:27 32° 112° (ESE) 1,252 4.1 -12.3°
Drops below altitude 10° 23:21:57 10° 50° (NE) 2,277 5.6 -13.4°
Enters shadow 23:24:36 - 40° (NE) 3,255 6.4 -14.1°
